Change the Weather History Date:

Wednesday, July 17, 2013

  Actual Average (KHTO) Record (KHTO)
Temperature  
Mean Temperature 78 °F -  
Max Temperature 84 °F 82 °F 93 °F (1953)
Min Temperature 72 °F 64 °F 48 °F (1946)
Cooling Degree Days 13    
Growing Degree Days 28 (Base 50)    
Moisture  
Dew Point 71 °F    
Average Humidity 78    
Maximum Humidity 97    
Minimum Humidity 55    
Precipitation  
Precipitation 0.00 in - - ()
Sea Level Pressure  
Sea Level Pressure 30.16 in    
Wind  
Wind Speed 2 mph (SSE)    
Max Wind Speed 8 mph    
Max Gust Speed -    
Averages and records for this station are not official NWS values.
T = Trace of Precipitation, MM = Missing Value Source: NWS Daily Summary

Daily Weather History Graph

Daily Weather History Graph

Search for Another Location

Airport or City:

Trip Planner

Search our weather history database for the weather conditions in past years. The results will help you decide how hot, cold, wet, or windy it might be!

Date:

Astronomy

Jul. 17, 2013 Rise Set
Actual Time 5:30 AM EDT 8:17 PM EDT
Civil Twilight 4:57 AM EDT 8:49 PM EDT
Nautical Twilight 4:16 AM EDT 9:30 PM EDT
Astronomical Twilight 3:30 AM EDT 10:16 PM EDT
Moon 3:02 PM EDT (7/17) 12:36 AM EDT (7/17)
Length of Visible Light 15h 51m
Length of Day
14h 47m
Waxing Gibbous, 67% of the Moon is Illuminated
Jul 17
Waxing Gibbous
Jul 22
Full
Jul 29
Last Quarter
Aug 6
New
Aug 14
First Quarter

Hourly Weather History & Observations

Time (EDT) Temp. Heat Index Dew Point Humidity Pressure Visibility Wind Dir Wind Speed Gust Speed Precip Events Conditions
12:54 AM 75.0 °F - 73.0 °F 94% 30.16 in - Calm Calm - N/A   Unknown
1:54 AM 73.9 °F - 72.0 °F 93% 30.15 in - Calm Calm - N/A   Unknown
2:54 AM 75.0 °F - 73.0 °F 94% 30.15 in - Calm Calm - N/A   Unknown
3:54 AM 73.9 °F - 73.0 °F 97% 30.15 in - Calm Calm - N/A   Unknown
4:54 AM 72.0 °F - 71.1 °F 97% 30.16 in - Calm Calm - N/A   Unknown
5:54 AM 72.0 °F - 70.0 °F 93% 30.17 in - Calm Calm - N/A   Unknown
6:54 AM 73.9 °F - 72.0 °F 93% 30.19 in - Calm Calm - N/A   Unknown
7:54 AM 75.0 °F - 73.0 °F 94% 30.19 in - NNE 3.5 mph - N/A   Unknown
8:54 AM 80.1 °F 84.2 °F 73.0 °F 79% 30.20 in - Variable 3.5 mph - N/A   Unknown
9:54 AM 84.0 °F 88.4 °F 70.0 °F 63% 30.20 in - East 4.6 mph - N/A   Unknown
10:54 AM 84.0 °F 88.4 °F 70.0 °F 63% 30.19 in - SSE 5.8 mph - N/A   Unknown
11:54 AM 84.9 °F 87.6 °F 66.9 °F 55% 30.19 in - Variable 3.5 mph - N/A   Unknown
12:54 PM 84.0 °F 88.4 °F 70.0 °F 63% 30.18 in - Variable 4.6 mph - N/A   Unknown
1:54 PM 84.0 °F 89.0 °F 71.1 °F 65% 30.17 in - South 4.6 mph - N/A   Unknown
2:54 PM 84.9 °F 88.8 °F 69.1 °F 59% 30.16 in - Variable 4.6 mph - N/A   Unknown
3:54 PM 84.9 °F 88.8 °F 69.1 °F 59% 30.14 in - Variable 3.5 mph - N/A   Unknown
4:54 PM 82.9 °F 87.0 °F 70.0 °F 65% 30.12 in - South 5.8 mph - N/A   Unknown
5:54 PM 81.0 °F 84.9 °F 71.1 °F 72% 30.10 in - South 6.9 mph - N/A   Unknown
6:54 PM 79.0 °F - 72.0 °F 79% 30.10 in - SSW 8.1 mph - N/A   Unknown
11:54 PM 77.0 °F - 73.9 °F 90% 30.07 in - SSW 4.6 mph - N/A   Unknown